Regional Weather Roundup
Issued by NWS

Home | Current Version | Previous Version | Text Only | Print | Product List | Glossary On
Versions: 1 2 3 4 5 6 7 8 9 10 11 12 13 14 15 16 17 18 19 20 21 22 23 24 25 26 27
000
ASUS45 KTFX 261210
RWRMT
MONTANA REGIONAL WEATHER ROUNDUP
NATIONAL WEATHER SERVICE GREAT FALLS MT
600 AM MDT TUE JUL 26 2016

NOTE: "FAIR" INDICATES FEW OR NO CLOUDS BELOW 12000 FEET WITH NO
SIGNIFICANT WEATHER AND/OR OBSTRUCTIONS TO VISIBILITY.

MTZ001>007-043-261300-
WEST OF THE DIVIDE

CITY           SKY/WX    TMP DP  RH WIND       PRES   REMARKS
KALISPELL      CLEAR     55  51  86 N10       30.03S
MISSOULA       CLEAR     55  46  71 CALM      30.09R
BUTTE          CLEAR     44  38  79 SE7       30.21R
MULLAN PASS    PTCLDY    66  41  40 S3        30.21S
ANACONDA         N/A     50  39  66 SW6       30.17S
DEER LODGE       N/A     48  46  93 CALM      30.19R
EUREKA           N/A     55  50  82 CALM      30.07R
HAMILTON         N/A     54  41  62 CALM      30.10R
LIBBY            N/A     55  48  76 CALM      30.05R
PLAINS           N/A     54  46  74 MISG      30.04R
RONAN            N/A     53  49  86 CALM      30.08S
$$

MTZ008-052>055-261300-
SOUTHWEST MONTANA

CITY           SKY/WX    TMP DP  RH WIND       PRES   REMARKS
BOZEMAN        CLEAR     55  46  71 SW3       30.15R
DILLON         CLEAR     51  39  63 S6        30.17R
W YELLOWSTONE  CLOUDY    37  32  81 CALM      30.28R
ENNIS          CLEAR     52  37  58 N7        30.23R
THREE FORKS      N/A     49  40  71 CALM      30.11R
$$

MTZ009-010-012-014-046-048-049-054-261300-
EAST SLOPES AND CENTRAL MONTANA

CITY           SKY/WX    TMP DP  RH WIND       PRES   REMARKS
CUT BANK       CLEAR     59  55  87 VRB3      30.10F
GREAT FALLS    CLEAR     53  47  79 SW9       30.08S
MALMSTROM AFB  CLEAR     56  51  81 S9        30.08R
HELENA         CLEAR     56  48  74 CALM      30.12R
CHOTEAU          N/A     55  54  94 W7        30.13R
CONRAD           N/A     56  56 100 W2        30.12R
$$

MTZ011-013-016-021-045-047-050-051-261300-
NORTH CENTRAL MONTANA

CITY           SKY/WX    TMP DP  RH WIND       PRES   REMARKS
HAVRE          CLOUDY    63  60  90 E10       30.03R
LEWISTOWN      CLEAR     55  48  77 SE6       30.10S
N BAR RANCH      N/A     55  46  71 CALM      30.15R
CHINOOK          N/A     63  61  94 CALM      30.03F
$$

MTZ017>020-022>027-061-062-261300-
NORTHEAST MONTANA

CITY           SKY/WX    TMP DP  RH WIND       PRES   REMARKS
GLASGOW        MOCLDY    64  59  83 E13       30.02S
JORDAN           N/A     68  58  70 E7        30.01R
SIDNEY         CLOUDY    68  62  81 NW8       30.05R
WOLF POINT     CLOUDY    66  62  87 E6        30.05S
PLENTYWOOD       N/A     64  57  77 N6        30.07R
POPLAR           N/A     64  61  88 NE5       30.05F
SCOBEY           N/A     62  51  67 N5        30.05F
$$

MTZ028>42-056>058-261300-
SOUTHCENTRAL AND SOUTHEAST MONTANA

CITY           SKY/WX    TMP DP  RH WIND       PRES   REMARKS
BAKER          LGT RAIN  64  61  90 NW26      30.16R
BILLINGS       PTCLDY    66  50  56 SW8       30.06S
LIVINGSTON     CLOUDY    54  46  74 W6        30.13S
MILES CITY     CLOUDY    66  60  81 NE28G37   29.96R
EKALAKA          N/A     65  58  78 N10       30.09R
FORSYTH          N/A     70  57  64 CALM      30.00R
LAUREL           N/A     61  48  62 W2        30.05F
ROUNDUP          N/A     61  50  67 SW7       29.98S
$$

REGIONAL REPORTS...DAKOTAS

CITY           SKY/WX    TMP DP  RH WIND       PRES   REMARKS
WILLISTON      CLEAR     64  59  83 N9        30.03R
MINOT          CLEAR     65  61  87 W3        30.00S
DICKINSON      CLOUDY    64  63  96 NE7       30.00R
CROSBY           N/A     57  57 100 NW5       30.09R
WATFORD CITY     N/A    N/A N/A N/A MISG        N/A
BISMARCK       CLEAR     69  67  93 NE8       29.96R
GRAND FORKS    CLOUDY    67  64  90 N6        29.93R
FARGO          CLOUDY    72  61  68 SW8       29.95R
BUFFALO SD       N/A     68  61  78 W25G38    30.07R
RAPID CITY     CLOUDY    65  61  87 S8        29.98F
$$

REGIONAL REPORTS...WYOMING/IDAHO/WASHINGTON

CITY           SKY/WX    TMP DP  RH WIND       PRES   REMARKS
GILLETTE       PTCLDY    64  54  69 N9        30.09R
SHERIDAN       CLEAR     68  47  46 NW14      30.08R
BUFFALO WY     CLEAR     65  45  48 NW10      30.14R
CODY           CLEAR     57  39  51 S5        30.16S
YELLOWSTONE LA   N/A     39  34  82 NW3       30.36R
IDAHO FALLS    CLOUDY    48  41  76 N3        30.13R
SALMON         CLOUDY    52  39  62 CALM      30.12R
BOISE          CLEAR     69  36  29 S7        29.97R
SPOKANE        PTCLDY    67  49  52 SE6       29.99R
$$

REGIONAL REPORTS...ALBERTA

CITY           SKY/WX    TMP DP  RH WIND       PRES   REMARKS
EDMONTON       PTCLDY    59  54  82 S3        30.04R
CALGARY        PTCLDY    59  55  88 W3        30.07F
LETHBRIDGE     PTCLDY    57  55  94 W8        30.05S
MEDICINE HAT   MOCLDY    63  59  88 E7        30.04S
WATERTON GATE    N/A     55  52  88 S7          N/A
MILK RIVER       N/A     57  55  94 S7          N/A
$$

REGIONAL REPORTS...SASKATCHEWAN

CITY           SKY/WX    TMP DP  RH WIND       PRES   REMARKS
SWIFT CURRENT  CLEAR     57  54  88 SE5       30.09F
REGINA         PTCLDY    54  52  94 S2        30.09R
SASKATOON      PTCLDY    50  50 100 NE6       30.11R
CYPRESS HILLS    N/A     57  54  88 SE5         N/A
VAL MARIE        N/A     57  54  88 NE7         N/A
ROCKGLEN         N/A     57  54  88 N3          N/A
ASSINIBOIA       N/A     54  52  94 SE3         N/A
$$




USA.gov is the U.S. government's official web portal to all federal, state and local government web resources and services.